Paris Le Bourget, France

5:29 PM CEST on September 24, 2017 (GMT +0200)
Le Bourget

Weather History for LFPB - September, 2013

Change the Weather History Date:

Monday, September 2, 2013

  Actual Average Record
Temperature  
Mean Temperature 63 °F -  
Max Temperature 75 °F 68 °F 86 °F (2011)
Min Temperature 51 °F 52 °F 48 °F (2003)
Degree Days  
Heating Degree Days 2    
Growing Degree Days 13 (Base 50)    
Moisture  
Dew Point 51 °F    
Average Humidity 67    
Maximum Humidity 88    
Minimum Humidity 44    
Precipitation  
Precipitation 0.00 in 0.07 in - ()
Sea Level Pressure  
Sea Level Pressure 30.36 in    
Wind  
Wind Speed 4 mph ()    
Max Wind Speed 10 mph    
Max Gust Speed -    
Visibility 6.2 miles    
Events      
Averages and records for this station are not official NWS values.
T = Trace of Precipitation, MM = Missing Value Source: Averaged Metar Reports

Daily Weather History Graph

Daily Weather History Graph

Search for Another Location

Airport or City:

Trip Planner

Search our weather history database for the weather conditions in past years. The results will help you decide how hot, cold, wet, or windy it might be!

Date:

Astronomy

Sep. 02, 2013 Rise Set
Actual Time 7:08 AM CEST 8:30 PM CEST
Civil Twilight 6:35 AM CEST 9:03 PM CEST
Nautical Twilight 5:55 AM CEST 9:42 PM CEST
Astronomical Twilight 5:12 AM CEST 10:25 PM CEST
Moon 4:01 AM CEST (9/2) 6:42 PM CEST (9/2)
Length of Visible Light 14h 27m
Length of Day
13h 22m
Waning Crescent, 9% of the Moon is Illuminated
Sep 2
Waning Crescent
Sep 5
New
Sep 12
First Quarter
Sep 19
Full
Sep 27
Last Quarter

Hourly Weather History & Observations

Time (CEST) Temp. Dew Point Humidity Pressure Visibility Wind Dir Wind Speed Gust Speed Precip Events Conditions
12:00 AM 60.8 °F 48.2 °F 63% 30.39 in 6.2 mi NNW 3.5 mph - N/A   Unknown
12:30 AM 59.0 °F 48.2 °F 67% 30.39 in 6.2 mi Variable 3.5 mph - N/A   Unknown
1:00 AM 59.0 °F 48.2 °F 67% 30.39 in 6.2 mi NNW 4.6 mph - N/A   Unknown
1:30 AM 57.2 °F 46.4 °F 67% 30.39 in 6.2 mi NNW 4.6 mph - N/A   Unknown
2:00 AM 57.2 °F 46.4 °F 67% 30.39 in 6.2 mi NW 2.3 mph - N/A   Unknown
2:30 AM 57.2 °F 46.4 °F 67% 30.39 in 6.2 mi NW 3.5 mph - N/A   Unknown
3:00 AM 55.4 °F 46.4 °F 72% 30.39 in 6.2 mi Variable 2.3 mph - N/A   Unknown
3:30 AM 55.4 °F 48.2 °F 77% 30.39 in 6.2 mi West 3.5 mph - N/A   Unknown
4:00 AM 55.4 °F 48.2 °F 77% 30.39 in 6.2 mi WSW 3.5 mph - N/A   Unknown
4:30 AM 55.4 °F 48.2 °F 77% 30.36 in 6.2 mi WSW 3.5 mph - N/A   Unknown
5:00 AM 53.6 °F 46.4 °F 77% 30.36 in 6.2 mi WNW 2.3 mph - N/A   Unknown
5:30 AM 53.6 °F 46.4 °F 77% 30.36 in 6.2 mi Calm Calm - N/A   Unknown
6:00 AM 51.8 °F 46.4 °F 82% 30.36 in 6.2 mi WSW 1.2 mph - N/A   Unknown
6:30 AM 51.8 °F 48.2 °F 88% 30.36 in 6.2 mi WSW 3.5 mph - N/A   Unknown
7:00 AM 51.8 °F 48.2 °F 88% 30.36 in 6.2 mi WSW 2.3 mph - N/A   Unknown
7:30 AM 51.8 °F 48.2 °F 88% 30.36 in 6.2 mi Variable 2.3 mph - N/A   Unknown
8:00 AM 53.6 °F 50.0 °F 88% 30.36 in 6.2 mi West 3.5 mph - N/A   Unknown
8:30 AM 55.4 °F 50.0 °F 82% 30.36 in 6.2 mi WSW 3.5 mph - N/A   Unknown
9:00 AM 57.2 °F 51.8 °F 82% 30.36 in 6.2 mi Variable 3.5 mph - N/A   Mostly Cloudy
9:30 AM 57.2 °F 51.8 °F 82% 30.36 in 6.2 mi West 4.6 mph - N/A   Overcast
10:00 AM 59.0 °F 53.6 °F 82% 30.39 in 6.2 mi WNW 4.6 mph - N/A   Mostly Cloudy
10:30 AM 60.8 °F 53.6 °F 77% 30.39 in 6.2 mi West 6.9 mph - N/A   Scattered Clouds
11:00 AM 62.6 °F 55.4 °F 77% 30.39 in 6.2 mi West 8.1 mph - N/A   Partly Cloudy
11:30 AM 64.4 °F 53.6 °F 68% 30.39 in 6.2 mi West 10.4 mph - N/A   Partly Cloudy
12:00 PM 64.4 °F 53.6 °F 68% 30.39 in 6.2 mi WNW 8.1 mph - N/A   Unknown
12:30 PM 66.2 °F 53.6 °F 64% 30.39 in 6.2 mi WNW 8.1 mph - N/A   Unknown
1:00 PM 66.2 °F 53.6 °F 64% 30.39 in 6.2 mi NW 8.1 mph - N/A   Unknown
1:30 PM 68.0 °F 53.6 °F 60% 30.36 in 6.2 mi WNW 8.1 mph - N/A   Unknown
2:00 PM 69.8 °F 53.6 °F 56% 30.36 in 6.2 mi West 9.2 mph - N/A   Unknown
2:30 PM 69.8 °F 53.6 °F 56% 30.36 in 6.2 mi WNW 8.1 mph - N/A   Unknown
3:00 PM 71.6 °F 55.4 °F 57% 30.36 in 6.2 mi West 6.9 mph - N/A   Unknown
3:30 PM 71.6 °F 53.6 °F 53% 30.33 in 6.2 mi NW 6.9 mph - N/A   Unknown
4:00 PM 73.4 °F 53.6 °F 50% 30.33 in 6.2 mi WNW 9.2 mph - N/A   Unknown
4:30 PM 73.4 °F 51.8 °F 47% 30.33 in 6.2 mi WNW 8.1 mph - N/A   Unknown
5:00 PM 73.4 °F 51.8 °F 47% 30.33 in 6.2 mi NW 8.1 mph - N/A   Unknown
5:30 PM 75.2 °F 51.8 °F 44% 30.33 in 6.2 mi WNW 6.9 mph - N/A   Unknown
6:00 PM 75.2 °F 51.8 °F 44% 30.33 in 6.2 mi NNW 5.8 mph - N/A   Unknown
6:30 PM 73.4 °F 51.8 °F 47% 30.33 in 6.2 mi NNW 8.1 mph - N/A   Unknown
7:00 PM 73.4 °F 51.8 °F 47% 30.30 in 6.2 mi NNW 4.6 mph - N/A   Unknown
7:30 PM 73.4 °F 51.8 °F 47% 30.33 in 6.2 mi NW 4.6 mph - N/A   Unknown
8:00 PM 71.6 °F 51.8 °F 50% 30.33 in 6.2 mi NNW 5.8 mph - N/A   Unknown
8:30 PM 69.8 °F 51.8 °F 53% 30.33 in 6.2 mi NNW 3.5 mph - N/A   Unknown
9:00 PM 68.0 °F 53.6 °F 60% 30.33 in 6.2 mi North 3.5 mph - N/A   Unknown
9:30 PM 66.2 °F 53.6 °F 64% 30.33 in 6.2 mi North 3.5 mph - N/A   Unknown
10:00 PM 64.4 °F 53.6 °F 68% 30.36 in 6.2 mi North 2.3 mph - N/A   Unknown
10:30 PM 64.4 °F 53.6 °F 68% 30.36 in 6.2 mi North 3.5 mph - N/A   Unknown
11:00 PM 62.6 °F 53.6 °F 72% 30.36 in 6.2 mi North 3.5 mph - N/A   Unknown
11:30 PM 60.8 °F 53.6 °F 77% 30.36 in 6.2 mi North 3.5 mph - N/A   Unknown